SCP
0 0 -0 -0 -0 -0 -0 -0 -0 -0 -0 -0 -0 -0 -0 -0 -0 -0 -0 -0 -0 -0 -0 -0 -0 -0 0 -0 -0 -0 -0 0 0 0 0 -0 0 -0 0 0 -0 -0 0 0 -0 -0 -0
0 0 0 0 0 -0 -0 -0 -0 -0 -0 -0 -0 -0 -0 -0 -0 -0 -0 -0 -0 -0 -0 -0 -0 -0 0 0 0 -0 0 -0 -0 0 -0 -0 -0 -0 0 0 0 0 0 0 -0 -0 -0
-0 0 0 0 0 0 -0 -0 -0 -0 -0 -0 -0 -0 -0 -0 -0 -0 -0 -0 -0 -0 -0 -0 0 0 0 -0 -0 0 0 0 -0 -0 -0 0 -0 0 -0 0 0 -0 -0 0 0 -0 -0
-0 -0 -0 -0 -0 0 0 -0 -0 -0 -0 -0 -0 -0 -0 -0 -0 -0 -0 -0 -0 -0 -0 -0 -0 -0 -0 -0 -0 -0 0 -0 -0 -0 0 -0 0 -0 0 0 -0 -0 0 -0 -0 0 -0
0 0 -0 -0 -0 -0 -0 -0 -0 -0 -0 -0 -0 -0 -0 -0 -0 -0 -0 -0 -0 -0 -0 -0 -0 0 -0 0 -0 -0 -0 -0 -0 -0 -0 -0 -0 0 -0 -0 0 -0 0 -0 0 -0 -0
0 0 0 0 -0 -0 -0 -0 -0 -0 -0 -0 -0 -0 -0 -0 -0 -0 -0 -0 0 -0 0 -0 -0 0 0 -0 0 0 0 -0 -0 -0 -0 -0 -0 0 -0 0 0 0 -0 -0 -0 0 0
0 0 0 0 -0 -0 -0 -0 -0 -0 -0 -0 -0 -0 -0 -0 -0 -0 -0 0 0 -0 0 0 0 -0 0 -0 -0 0 0 -0 -0 -0 -0 -0 0 0 -0 -0 -0 -0 -0 -0 -0 0 -0
-0 -0 -0 -0 -0 -0 -0 -0 -0 -0 -0 -0 -0 -0 -0 -0 -0 -0 0 0 -0 -0 -0 -0 -0 -0 -0 -0 -0 0 -0 0 0 -0 -0 -0 -0 -0 -0 -0 -0 -0 -0 -0 0 0 -0
-0 -0 -0 -0 -0 -0 -0 -0 -0 -0 -0 -0 -0 -0 -0 -0 -0 0 -0 -0 -0 -0 -0 -0 -0 0 -0 -0 -0 -0 -0 0 0 0 0 -0 -0 -0 -0 0 0 -0 -0 -0 -0 -0 0
-0 -0 -0 -0 -0 -0 -0 -0 -0 -0 -0 -0 -0 -0 -0 -0 -0 -0 -0 -0 -0 -0 -0 0 -0 -0 -0 -0 -0 0 -0 0 0 -0 -0 -0 -0 -0 0 -0 0 0 0 0 0 -0 -0
-0 -0 -0 -0 -0 -0 -0 -0 -0 -0 -0 -0 -0 -0 -0 -0 -0 0 -0 -0 0 0 0 -0 -0 -0 -0 -0 0 0 -0 0 0 0 0 0 -0 -0 -0 -0 -0 -0 0 0 0 0 0
-0 -0 -0 -0 -0 -0 -0 -0 -0 -0 -0 -0 -0 -0 -0 0 0 -0 -0 0 0 0 0 -0 0 0 -0 -0 -0 -0 -0 0 0 0 0 0 0 -0 -0 -0 0 -0 0 0 0 -0 -0
-0 -0 -0 -0 -0 -0 -0 -0 -0 -0 -0 -0 -0 -0 0 0 0 0 0 0 0 0 0 0 0 0 0 0 -0 0 0 0 0 0 -0 0 0 0 0 0 0 -0 -0 0 0 -0 0
-0 -0 -0 -0 -0 -0 -0 -0 -0 -0 -0 -0 -0 -0 0 0 0 0 0 0 0 -0 -0 0 0 0 0 0 0 0 0 0 0 -0 -0 0 0 0 0 0 0 -0 0 0 0 -0 0
-0 -0 -0 -0 -0 -0 -0 -0 -0 -0 -0 -0 -0 0 0 0 0 0 0 0 0 0 0 0 0 0 0 0 0 0 0 0 0 0 0 0 0 0 0 0 0 0 -0 -0 -0 -0 0
0 0 0 0 0 0 -0 -0 -0 -0 -0 -0 0 0 0 -0 0 0 0 0 0 0 0 0 0 0 0 0 0 0 0 0 0 0 0 0 0 -0 0 0 0 0 -0 0 0 -0 0
0 0 0 0 0 0 0 0 0 -0 -0 -0 0 0 0 0 0 0 0 0 0 0 0 0 0 0 0 0 0 0 0 0 0 0 0 0 0 0 0 0 0 0 0 0 -0 -0 0
0 0 0 0 0 0 0 0 0 0 -0 -0 0 0 0 0 0 0 0 0 0 0 0 0 0 0 0 0 0 0 0 0 0 0 0 0 0 0 0 -0 0 0 0 0 0 0 -0
0 0 0 0 0 0 0 0 0 0 -0 0 0 0 0 0 0 0 0 0 0 0 0 0 0 0 0 0 0 0 0 0 0 0 0 0 0 0 0 0 0 0 0 0 0 0 0
0 0 0 0 0 0 0 0 0 0 0 0 0 0 0 0 0 0 0 0 0 0 0 0 0 0 0 0 0 0 0 0 0 0 0 0 0 0 0 0 0 0 0 0 0 0 0
0 0 0 0 0 0 0 0 0 0 0 0 0 0 0 0 0 0 0 0 0 0 0 0 0 0 0 0 0 0 0 0 0 0 0 0 0 0 0 0 0 -0 0 0 0 0 0
0 0 0 0 0 0 0 0 0 0 0 0 0 0 0 0 0 0 0 0 0 0 0 0 0 0 0 0 0 0 0 0 0 0 0 0 0 0 0 0 0 -0 -0 0 0 0 0
0 0 0 0 0 0 0 0 0 0 0 0 0 0 0 0 0 0 0 0 0 0 0 0 0 0 0 0 0 0 0 0 0 0 0 0 0 0 0 0 0 0 -0 0 -0 0 0
0 0 0 0 0 0 0 0 0 0 0 0 0 0 0 0 0 0 0 0 0 0 0 0 0 0 0 0 0 0 0 0 0 0 0 0 0 0 0 0 0 0 0 0 0 0 0
0 0 0 0 0 0 0 0 0 0 0 0 0 0 0 0 0 0 0 0 0 0 0 0 0 0 0 0 0 0 0 0 0 0 0 0 0 0 0 0 0 0 0 0 0 0 0
0 0 0 0 0 0 0 0 0 0 0 0 0 0 0 0 0 0 0 0 0 0 0 0 0 0 0 0 0 0 0 0 0 0 0 0 0 0 0 0 0 0 0 0 -0 0 0
0 0 0 0 0 0 0 0 0 0 0 0 0 0 0 0 0 0 0 0 0 0 0 0 0 0 0 0 0 0 0 0 0 0 0 0 0 0 0 0 0 0 0 0 0 0 -0
0 0 0 0 0 0 0 0 0 0 0 0 0 0 0 0 0 0 0 0 0 0 0 0 0 0 0 0 0 0 0 0 0 0 0 0 0 0 0 0 0 0 0 -0 0 0 -0
0 0 0 0 0 0 0 0 0 0 0 0 0 0 0 0 0 0 -0 0 0 0 0 0 0 0 0 0 0 0 0 0 0 0 0 0 0 0 0 0 0 0 0 0 0 0 0
Wind_Speed_500mb
41 44 44 43 41 40 38 36 34 33 31 31 32 34 32 28 21 16 13 12 9 4 4 6 8 8 6 5 13 16 10 18 21 25 9 12 23 13 7 10 46 28 13 42 52 37 50
43 44 46 44 42 41 40 38 36 35 34 35 37 38 34 29 21 16 11 7 4 3 4 7 8 9 8 8 9 17 12 20 20 15 6 15 24 10 31 14 5 22 32 40 33 43 44
43 43 43 44 44 41 39 39 39 39 38 37 39 39 37 29 21 12 7 4 2 2 4 6 8 9 11 13 17 10 16 16 13 2 23 29 26 10 11 9 16 42 22 25 35 24 37
44 42 41 41 41 43 44 43 41 39 37 37 38 39 38 29 17 10 7 6 2 2 5 7 7 8 10 5 15 11 16 7 6 13 24 22 25 24 17 19 18 15 16 17 19 22 16
44 43 42 42 41 40 40 40 40 41 42 44 43 39 36 26 12 9 6 6 3 3 4 8 8 3 17 18 29 21 17 16 13 19 21 24 26 24 15 22 10 18 4 30 8 22 16
42 43 44 44 44 44 43 42 42 41 40 39 39 41 38 24 9 5 4 9 8 6 4 11 9 7 23 20 17 27 25 21 20 16 23 28 20 11 8 9 15 20 13 12 10 9 35
39 41 42 43 44 45 45 45 45 45 44 43 41 39 37 27 6 3 5 10 7 2 18 22 15 16 3 16 19 25 23 22 22 21 11 32 8 16 20 31 23 26 13 11 14 14 14
38 39 40 42 44 44 44 44 45 45 44 44 43 39 34 26 8 4 4 9 20 18 19 40 44 42 18 27 15 23 27 24 24 14 19 14 18 29 21 33 32 29 28 19 17 13 8
38 40 42 43 44 45 45 45 45 45 45 44 42 39 33 22 7 3 12 17 17 20 11 27 48 38 17 24 26 35 38 36 14 16 19 19 26 28 19 2 3 11 26 30 20 24 6
38 40 42 44 46 47 47 48 48 48 46 44 42 38 34 15 6 9 21 14 18 17 6 11 24 30 36 19 18 34 42 33 12 21 21 18 36 26 8 8 10 16 13 19 15 32 15
39 40 42 44 46 47 49 51 50 50 49 46 42 39 28 24 13 10 17 13 26 8 7 19 19 13 33 28 4 29 38 41 20 17 10 23 21 15 8 10 10 19 17 14 12 15 9
40 41 43 45 47 49 50 51 51 51 51 48 41 38 30 21 10 13 17 19 17 3 11 16 16 10 17 30 25 34 35 34 30 17 19 21 45 10 16 16 17 15 14 17 10 5 10
42 43 45 47 49 52 54 54 54 52 51 48 40 34 31 18 9 2 6 14 2 7 18 16 14 17 16 18 19 16 17 16 12 6 12 20 22 19 11 8 14 9 8 7 8 4 14
41 43 45 48 50 51 53 54 54 52 51 51 39 34 24 18 18 13 8 4 8 19 14 14 22 20 22 20 22 20 18 15 19 18 11 15 15 21 19 18 14 14 17 11 11 7 5
42 44 45 47 47 49 50 52 53 51 49 51 42 28 31 7 6 10 16 7 11 7 26 26 5 16 17 21 20 23 21 17 20 22 16 10 15 10 14 13 23 17 8 20 9 10 8
43 45 45 46 47 48 50 52 52 50 46 46 44 37 17 14 8 12 5 10 13 23 37 29 20 10 9 23 23 20 22 25 24 28 31 16 17 15 28 24 18 17 14 4 5 4 7
43 44 44 46 47 48 49 50 52 50 45 38 31 20 15 31 15 12 7 11 23 48 49 26 13 18 20 21 18 16 27 21 25 30 24 20 16 24 15 9 18 5 11 5 4 6 11
41 42 43 45 45 45 46 47 48 50 45 37 13 6 19 14 11 13 11 16 25 47 59 38 12 11 17 25 27 22 19 16 39 25 19 21 13 13 23 27 18 19 19 18 10 17 6
39 39 38 37 39 41 42 42 42 43 46 50 28 15 16 18 5 10 18 28 40 31 34 33 9 16 17 18 17 16 28 45 50 14 20 14 8 9 16 18 11 17 12 12 8 9 16
35 32 32 35 40 45 49 47 43 38 33 35 14 7 13 19 26 14 13 18 25 44 34 40 18 5 20 26 20 16 23 25 51 36 26 25 11 14 18 19 13 15 18 21 18 7 12
29 26 29 35 43 48 51 54 51 40 29 25 7 8 26 9 19 29 29 25 30 34 37 44 20 22 14 14 19 24 30 23 39 34 5 9 16 14 11 15 23 23 17 28 20 19 16
23 21 27 34 40 45 49 53 54 47 32 17 16 16 27 35 36 25 18 15 28 32 24 31 24 33 27 10 10 13 26 14 7 25 25 16 10 11 13 15 25 33 34 30 31 27 14
15 16 24 30 36 42 48 54 55 53 39 9 19 19 15 21 20 17 16 26 33 33 36 41 32 14 25 17 27 32 36 39 24 15 20 12 10 5 14 11 15 30 11 20 15 10 25
9 11 19 25 33 39 47 53 53 50 42 26 16 19 11 9 13 19 37 45 38 37 25 34 37 12 23 40 37 41 35 35 39 24 27 16 11 5 9 11 32 6 9 15 17 24 18
8 9 15 21 30 38 43 51 52 47 38 23 16 7 11 11 20 31 35 36 46 46 28 34 34 41 50 42 11 13 9 15 23 23 19 19 7 7 5 13 25 16 14 18 20 27 17
12 10 11 17 28 37 40 46 54 48 36 24 14 8 10 17 10 22 34 37 14 21 17 36 31 31 25 2 4 9 7 15 12 11 14 21 13 5 14 14 27 8 13 48 13 13 12
18 16 13 16 26 34 39 41 48 50 34 25 5 8 10 13 39 28 13 23 29 27 12 23 44 22 26 2 4 9 21 12 28 23 12 14 11 14 15 25 18 17 36 50 15 16 9
24 22 20 20 26 33 35 36 39 46 37 23 11 12 16 15 56 42 32 35 42 35 11 41 23 18 12 7 6 9 8 10 19 19 15 18 11 10 5 6 25 48 22 7 20 42 25
28 28 25 25 25 30 32 31 32 39 39 25 15 9 18 26 39 55 55 41 38 29 39 30 28 29 5 6 8 9 8 8 13 16 14 11 3 6 7 7 38 50 34 49 44 44 51
Wind_Direction_500mb
32 33 37 39 41 37 34 30 25 20 16 11 8 3 357 352 347 339 326 313 302 271 246 235 217 213 210 253 269 303 227 199 184 182 232 297 282 111 79 307 294 210 330 319 118 118 108
38 35 34 38 37 34 32 29 26 21 15 9 5 2 359 354 348 337 331 319 286 244 228 223 214 210 203 252 263 294 195 186 179 190 242 282 304 146 145 221 194 339 356 350 13 84 100
39 40 37 32 29 30 30 26 22 18 14 8 4 1 359 355 348 356 9 1 314 267 221 210 207 207 219 241 291 296 186 177 148 226 282 303 337 317 219 322 77 23 3 354 39 34 107
33 35 35 33 29 24 20 18 19 17 12 8 5 1 359 354 357 16 12 2 2 188 197 194 192 198 237 188 249 281 179 222 253 271 268 296 321 302 302 77 24 40 32 333 40 18 72
25 26 27 27 25 23 20 17 15 12 8 5 3 2 0 357 6 9 31 41 82 151 178 171 150 230 278 230 209 216 209 224 239 257 265 281 293 275 159 117 51 49 328 289 299 51 25
20 20 19 19 17 16 14 12 10 9 7 5 2 359 0 1 3 14 39 47 55 96 151 159 174 276 233 237 210 198 200 220 242 261 276 251 265 240 263 167 167 173 165 245 276 56 43
14 14 14 12 11 9 8 6 4 3 1 0 360 358 357 355 347 314 278 312 332 155 203 210 204 228 167 201 183 197 195 212 243 254 251 270 254 256 264 170 166 166 147 168 226 164 92
7 7 6 5 4 4 4 2 1 360 359 357 356 355 355 350 321 287 296 318 357 323 291 261 256 262 247 154 174 206 191 205 227 233 238 288 241 255 275 142 158 159 149 191 300 174 134
1 360 359 359 358 357 358 358 357 356 356 354 353 353 350 348 329 305 308 320 344 340 279 276 234 226 206 176 216 206 194 206 206 230 245 225 252 255 283 109 133 264 182 190 207 191 81
359 358 357 355 354 353 352 352 351 350 350 350 349 350 347 346 339 301 290 17 323 319 308 259 188 224 215 192 245 226 189 200 241 209 235 249 260 268 79 326 320 274 300 200 211 139 198
358 357 356 354 353 351 350 348 346 344 342 342 344 341 350 336 303 273 355 349 328 292 315 126 173 197 190 184 175 218 185 212 239 247 206 251 269 283 277 240 266 265 320 324 358 347 330
357 356 354 353 351 349 347 345 343 341 337 334 337 332 333 319 276 355 335 324 305 324 247 183 135 173 154 207 268 163 170 207 244 273 286 261 274 287 228 260 222 284 333 344 344 262 320
353 352 350 349 347 345 343 341 340 339 334 330 330 325 310 296 164 356 360 304 301 228 152 149 164 175 217 203 239 170 179 190 212 222 275 291 278 273 282 338 332 234 343 341 332 301 225
350 348 347 346 346 344 342 340 339 339 335 327 330 324 298 288 240 255 338 307 249 278 272 171 157 182 182 214 210 230 180 206 218 246 282 214 281 220 214 187 190 251 176 174 224 223 319
347 346 346 347 347 347 345 343 342 342 338 325 330 322 293 120 155 143 263 235 223 220 355 342 291 176 192 211 218 209 200 205 215 197 207 305 254 305 236 160 155 252 260 218 262 299 356
345 346 346 347 347 348 347 346 344 346 345 332 330 333 323 157 182 153 219 258 288 336 311 312 323 310 284 206 202 211 197 206 219 218 195 238 286 285 308 166 188 171 233 320 314 276 283
344 344 345 346 347 347 347 345 344 347 351 344 334 331 116 147 174 210 225 253 295 300 308 319 297 309 311 320 321 249 214 217 200 219 208 197 184 272 322 230 169 185 257 264 163 163 191
340 342 344 346 348 349 349 347 344 346 354 357 8 292 156 178 209 223 237 259 271 280 286 289 285 271 294 304 310 315 315 292 205 219 197 211 190 221 245 264 202 189 195 194 149 280 239
342 345 349 353 356 358 0 360 353 350 354 354 341 275 243 209 237 267 281 291 300 295 283 281 286 307 307 294 288 292 303 305 310 293 178 195 257 236 310 309 254 177 210 223 228 186 248
343 351 358 8 11 10 11 10 9 358 353 347 346 307 338 194 227 275 317 312 321 304 301 328 304 331 311 301 304 288 293 301 303 312 316 173 170 181 217 225 237 201 206 211 204 197 228
348 1 12 12 13 11 9 7 6 9 359 353 335 335 357 316 339 335 329 323 314 316 332 336 331 317 250 275 306 303 305 320 325 308 242 200 211 212 245 279 276 278 251 211 202 217 202
355 13 14 14 13 10 8 7 3 2 12 37 339 357 341 307 303 322 314 300 298 297 299 300 299 303 309 10 25 346 349 359 294 330 346 323 248 207 257 279 286 290 286 272 228 217 241
355 11 12 9 8 9 7 5 1 358 5 34 320 320 343 286 306 295 287 296 301 308 307 303 298 1 328 24 359 328 315 317 299 297 313 319 7 286 242 259 301 277 245 270 286 241 204
338 359 2 4 6 7 7 4 1 357 357 346 343 332 284 282 303 305 310 308 305 305 307 311 318 332 327 321 332 331 315 305 300 291 293 295 325 296 273 190 232 267 292 284 281 281 286
302 333 355 5 9 7 6 5 2 357 356 358 1 357 312 285 298 291 314 320 314 311 306 305 309 301 301 311 328 313 313 296 273 262 270 287 294 292 277 268 253 248 256 258 268 282 290
280 296 333 1 5 1 359 1 4 1 356 0 20 334 273 310 258 339 320 303 350 347 331 330 343 348 303 306 10 250 252 310 266 296 321 319 284 235 279 274 270 273 276 256 321 275 24
274 280 298 329 344 350 353 355 359 360 353 351 342 294 254 280 279 335 354 324 312 326 297 335 353 338 340 20 280 286 268 238 267 277 288 297 290 262 307 282 282 329 302 315 298 263 334
279 277 283 302 324 337 345 350 354 357 354 346 334 289 266 262 280 283 309 316 324 339 340 330 340 18 339 338 260 243 264 279 287 278 252 261 269 266 195 208 260 11 22 8 314 311 335
282 272 277 288 312 325 338 340 347 357 359 350 351 348 301 261 268 291 290 274 266 264 293 302 294 315 285 349 3 332 331 325 303 285 316 308 197 164 167 274 313 307 305 323 349 336 349
Wind_Speed_850mb
41 44 44 43 41 40 38 36 34 33 31 31 32 34 32 28 21 16 13 12 9 4 4 6 8 8 6 5 13 16 10 18 21 25 9 12 23 13 7 10 46 28 13 42 52 37 50
43 44 46 44 42 41 40 38 36 35 34 35 37 38 34 29 21 16 11 7 4 3 4 7 8 9 8 8 9 17 12 20 20 15 6 15 24 10 31 14 5 22 32 40 33 43 44
43 43 43 44 44 41 39 39 39 39 38 37 39 39 37 29 21 12 7 4 2 2 4 6 8 9 11 13 17 10 16 16 13 2 23 29 26 10 11 9 16 42 22 25 35 24 37
44 42 41 41 41 43 44 43 41 39 37 37 38 39 38 29 17 10 7 6 2 2 5 7 7 8 10 5 15 11 16 7 6 13 24 22 25 24 17 19 18 15 16 17 19 22 16
44 43 42 42 41 40 40 40 40 41 42 44 43 39 36 26 12 9 6 6 3 3 4 8 8 3 17 18 29 21 17 16 13 19 21 24 26 24 15 22 10 18 4 30 8 22 16
42 43 44 44 44 44 43 42 42 41 40 39 39 41 38 24 9 5 4 9 8 6 4 11 9 7 23 20 17 27 25 21 20 16 23 28 20 11 8 9 15 20 13 12 10 9 35
39 41 42 43 44 45 45 45 45 45 44 43 41 39 37 27 6 3 5 10 7 2 18 22 15 16 3 16 19 25 23 22 22 21 11 32 8 16 20 31 23 26 13 11 14 14 14
38 39 40 42 44 44 44 44 45 45 44 44 43 39 34 26 8 4 4 9 20 18 19 40 44 42 18 27 15 23 27 24 24 14 19 14 18 29 21 33 32 29 28 19 17 13 8
38 40 42 43 44 45 45 45 45 45 45 44 42 39 33 22 7 3 12 17 17 20 11 27 48 38 17 24 26 35 38 36 14 16 19 19 26 28 19 2 3 11 26 30 20 24 6
38 40 42 44 46 47 47 48 48 48 46 44 42 38 34 15 6 9 21 14 18 17 6 11 24 30 36 19 18 34 42 33 12 21 21 18 36 26 8 8 10 16 13 19 15 32 15
39 40 42 44 46 47 49 51 50 50 49 46 42 39 28 24 13 10 17 13 26 8 7 19 19 13 33 28 4 29 38 41 20 17 10 23 21 15 8 10 10 19 17 14 12 15 9
40 41 43 45 47 49 50 51 51 51 51 48 41 38 30 21 10 13 17 19 17 3 11 16 16 10 17 30 25 34 35 34 30 17 19 21 45 10 16 16 17 15 14 17 10 5 10
42 43 45 47 49 52 54 54 54 52 51 48 40 34 31 18 9 2 6 14 2 7 18 16 14 17 16 18 19 16 17 16 12 6 12 20 22 19 11 8 14 9 8 7 8 4 14
41 43 45 48 50 51 53 54 54 52 51 51 39 34 24 18 18 13 8 4 8 19 14 14 22 20 22 20 22 20 18 15 19 18 11 15 15 21 19 18 14 14 17 11 11 7 5
42 44 45 47 47 49 50 52 53 51 49 51 42 28 31 7 6 10 16 7 11 7 26 26 5 16 17 21 20 23 21 17 20 22 16 10 15 10 14 13 23 17 8 20 9 10 8
43 45 45 46 47 48 50 52 52 50 46 46 44 37 17 14 8 12 5 10 13 23 37 29 20 10 9 23 23 20 22 25 24 28 31 16 17 15 28 24 18 17 14 4 5 4 7
43 44 44 46 47 48 49 50 52 50 45 38 31 20 15 31 15 12 7 11 23 48 49 26 13 18 20 21 18 16 27 21 25 30 24 20 16 24 15 9 18 5 11 5 4 6 11
41 42 43 45 45 45 46 47 48 50 45 37 13 6 19 14 11 13 11 16 25 47 59 38 12 11 17 25 27 22 19 16 39 25 19 21 13 13 23 27 18 19 19 18 10 17 6
39 39 38 37 39 41 42 42 42 43 46 50 28 15 16 18 5 10 18 28 40 31 34 33 9 16 17 18 17 16 28 45 50 14 20 14 8 9 16 18 11 17 12 12 8 9 16
35 32 32 35 40 45 49 47 43 38 33 35 14 7 13 19 26 14 13 18 25 44 34 40 18 5 20 26 20 16 23 25 51 36 26 25 11 14 18 19 13 15 18 21 18 7 12
29 26 29 35 43 48 51 54 51 40 29 25 7 8 26 9 19 29 29 25 30 34 37 44 20 22 14 14 19 24 30 23 39 34 5 9 16 14 11 15 23 23 17 28 20 19 16
23 21 27 34 40 45 49 53 54 47 32 17 16 16 27 35 36 25 18 15 28 32 24 31 24 33 27 10 10 13 26 14 7 25 25 16 10 11 13 15 25 33 34 30 31 27 14
15 16 24 30 36 42 48 54 55 53 39 9 19 19 15 21 20 17 16 26 33 33 36 41 32 14 25 17 27 32 36 39 24 15 20 12 10 5 14 11 15 30 11 20 15 10 25
9 11 19 25 33 39 47 53 53 50 42 26 16 19 11 9 13 19 37 45 38 37 25 34 37 12 23 40 37 41 35 35 39 24 27 16 11 5 9 11 32 6 9 15 17 24 18
8 9 15 21 30 38 43 51 52 47 38 23 16 7 11 11 20 31 35 36 46 46 28 34 34 41 50 42 11 13 9 15 23 23 19 19 7 7 5 13 25 16 14 18 20 27 17
12 10 11 17 28 37 40 46 54 48 36 24 14 8 10 17 10 22 34 37 14 21 17 36 31 31 25 2 4 9 7 15 12 11 14 21 13 5 14 14 27 8 13 48 13 13 12
18 16 13 16 26 34 39 41 48 50 34 25 5 8 10 13 39 28 13 23 29 27 12 23 44 22 26 2 4 9 21 12 28 23 12 14 11 14 15 25 18 17 36 50 15 16 9
24 22 20 20 26 33 35 36 39 46 37 23 11 12 16 15 56 42 32 35 42 35 11 41 23 18 12 7 6 9 8 10 19 19 15 18 11 10 5 6 25 48 22 7 20 42 25
28 28 25 25 25 30 32 31 32 39 39 25 15 9 18 26 39 55 55 41 38 29 39 30 28 29 5 6 8 9 8 8 13 16 14 11 3 6 7 7 38 50 34 49 44 44 51
Wind_Direction_850mb
32 33 37 39 41 37 34 30 25 20 16 11 8 3 357 352 347 339 326 313 302 271 246 235 217 213 210 253 269 303 227 199 184 182 232 297 282 111 79 307 294 210 330 319 118 118 108
38 35 34 38 37 34 32 29 26 21 15 9 5 2 359 354 348 337 331 319 286 244 228 223 214 210 203 252 263 294 195 186 179 190 242 282 304 146 145 221 194 339 356 350 13 84 100
39 40 37 32 29 30 30 26 22 18 14 8 4 1 359 355 348 356 9 1 314 267 221 210 207 207 219 241 291 296 186 177 148 226 282 303 337 317 219 322 77 23 3 354 39 34 107
33 35 35 33 29 24 20 18 19 17 12 8 5 1 359 354 357 16 12 2 2 188 197 194 192 198 237 188 249 281 179 222 253 271 268 296 321 302 302 77 24 40 32 333 40 18 72
25 26 27 27 25 23 20 17 15 12 8 5 3 2 0 357 6 9 31 41 82 151 178 171 150 230 278 230 209 216 209 224 239 257 265 281 293 275 159 117 51 49 328 289 299 51 25
20 20 19 19 17 16 14 12 10 9 7 5 2 359 0 1 3 14 39 47 55 96 151 159 174 276 233 237 210 198 200 220 242 261 276 251 265 240 263 167 167 173 165 245 276 56 43
14 14 14 12 11 9 8 6 4 3 1 0 360 358 357 355 347 314 278 312 332 155 203 210 204 228 167 201 183 197 195 212 243 254 251 270 254 256 264 170 166 166 147 168 226 164 92
7 7 6 5 4 4 4 2 1 360 359 357 356 355 355 350 321 287 296 318 357 323 291 261 256 262 247 154 174 206 191 205 227 233 238 288 241 255 275 142 158 159 149 191 300 174 134
1 360 359 359 358 357 358 358 357 356 356 354 353 353 350 348 329 305 308 320 344 340 279 276 234 226 206 176 216 206 194 206 206 230 245 225 252 255 283 109 133 264 182 190 207 191 81
359 358 357 355 354 353 352 352 351 350 350 350 349 350 347 346 339 301 290 17 323 319 308 259 188 224 215 192 245 226 189 200 241 209 235 249 260 268 79 326 320 274 300 200 211 139 198
358 357 356 354 353 351 350 348 346 344 342 342 344 341 350 336 303 273 355 349 328 292 315 126 173 197 190 184 175 218 185 212 239 247 206 251 269 283 277 240 266 265 320 324 358 347 330
357 356 354 353 351 349 347 345 343 341 337 334 337 332 333 319 276 355 335 324 305 324 247 183 135 173 154 207 268 163 170 207 244 273 286 261 274 287 228 260 222 284 333 344 344 262 320
353 352 350 349 347 345 343 341 340 339 334 330 330 325 310 296 164 356 360 304 301 228 152 149 164 175 217 203 239 170 179 190 212 222 275 291 278 273 282 338 332 234 343 341 332 301 225
350 348 347 346 346 344 342 340 339 339 335 327 330 324 298 288 240 255 338 307 249 278 272 171 157 182 182 214 210 230 180 206 218 246 282 214 281 220 214 187 190 251 176 174 224 223 319
347 346 346 347 347 347 345 343 342 342 338 325 330 322 293 120 155 143 263 235 223 220 355 342 291 176 192 211 218 209 200 205 215 197 207 305 254 305 236 160 155 252 260 218 262 299 356
345 346 346 347 347 348 347 346 344 346 345 332 330 333 323 157 182 153 219 258 288 336 311 312 323 310 284 206 202 211 197 206 219 218 195 238 286 285 308 166 188 171 233 320 314 276 283
344 344 345 346 347 347 347 345 344 347 351 344 334 331 116 147 174 210 225 253 295 300 308 319 297 309 311 320 321 249 214 217 200 219 208 197 184 272 322 230 169 185 257 264 163 163 191
340 342 344 346 348 349 349 347 344 346 354 357 8 292 156 178 209 223 237 259 271 280 286 289 285 271 294 304 310 315 315 292 205 219 197 211 190 221 245 264 202 189 195 194 149 280 239
342 345 349 353 356 358 0 360 353 350 354 354 341 275 243 209 237 267 281 291 300 295 283 281 286 307 307 294 288 292 303 305 310 293 178 195 257 236 310 309 254 177 210 223 228 186 248
343 351 358 8 11 10 11 10 9 358 353 347 346 307 338 194 227 275 317 312 321 304 301 328 304 331 311 301 304 288 293 301 303 312 316 173 170 181 217 225 237 201 206 211 204 197 228
348 1 12 12 13 11 9 7 6 9 359 353 335 335 357 316 339 335 329 323 314 316 332 336 331 317 250 275 306 303 305 320 325 308 242 200 211 212 245 279 276 278 251 211 202 217 202
355 13 14 14 13 10 8 7 3 2 12 37 339 357 341 307 303 322 314 300 298 297 299 300 299 303 309 10 25 346 349 359 294 330 346 323 248 207 257 279 286 290 286 272 228 217 241
355 11 12 9 8 9 7 5 1 358 5 34 320 320 343 286 306 295 287 296 301 308 307 303 298 1 328 24 359 328 315 317 299 297 313 319 7 286 242 259 301 277 245 270 286 241 204
338 359 2 4 6 7 7 4 1 357 357 346 343 332 284 282 303 305 310 308 305 305 307 311 318 332 327 321 332 331 315 305 300 291 293 295 325 296 273 190 232 267 292 284 281 281 286
302 333 355 5 9 7 6 5 2 357 356 358 1 357 312 285 298 291 314 320 314 311 306 305 309 301 301 311 328 313 313 296 273 262 270 287 294 292 277 268 253 248 256 258 268 282 290
280 296 333 1 5 1 359 1 4 1 356 0 20 334 273 310 258 339 320 303 350 347 331 330 343 348 303 306 10 250 252 310 266 296 321 319 284 235 279 274 270 273 276 256 321 275 24
274 280 298 329 344 350 353 355 359 360 353 351 342 294 254 280 279 335 354 324 312 326 297 335 353 338 340 20 280 286 268 238 267 277 288 297 290 262 307 282 282 329 302 315 298 263 334
279 277 283 302 324 337 345 350 354 357 354 346 334 289 266 262 280 283 309 316 324 339 340 330 340 18 339 338 260 243 264 279 287 278 252 261 269 266 195 208 260 11 22 8 314 311 335
282 272 277 288 312 325 338 340 347 357 359 350 351 348 301 261 268 291 290 274 266 264 293 302 294 315 285 349 3 332 331 325 303 285 316 308 197 164 167 274 313 307 305 323 349 336 349